Hourly Weather Rutwica

Today, 20 April, Tuesday

Time Temperature Precipitation Wind Pressure Humidity
00:00 +8°C° 0 mm 2 mps 750 mmHg 70%
01:00 +7°C° 0 mm 2 mps 750 mmHg 71%
02:00 +8°C° 0 mm 1 mps 750 mmHg 73%
03:00 +7°C° 0 mm 1 mps 749 mmHg 74%
04:00 +7°C° 0 mm 1 mps 749 mmHg 76%
05:00 +8°C° 0 mm 1 mps 749 mmHg 72%
06:00 +9°C° 0 mm 1 mps 749 mmHg 69%
07:00 +10°C° 0 mm 1 mps 749 mmHg 65%
08:00 +12°C° 0 mm 1 mps 749 mmHg 60%
09:00 +13°C° 0 mm 0 mps 749 mmHg 55%
10:00 +15°C° 0 mm 0 mps 749 mmHg 50%
11:00 +18°C° 0 mm 1 mps 748 mmHg 45%
12:00 +18°C° 0 mm 1 mps 748 mmHg 40%
13:00 +19°C° 0 mm 1 mps 748 mmHg 35%
14:00 +18°C° 0 mm 2 mps 747 mmHg 35%
15:00 +18°C° 0 mm 3 mps 747 mmHg 36%
16:00 +17°C° 0 mm 3 mps 747 mmHg 37%
17:00 +16°C° 0 mm 3 mps 747 mmHg 46%
18:00 +13°C° 0 mm 3 mps 747 mmHg 55%
19:00 +12°C° 0 mm 2 mps 747 mmHg 63%
20:00 +10°C° 0 mm 2 mps 747 mmHg 68%
21:00 +9°C° 0 mm 2 mps 747 mmHg 72%
22:00 +8°C° 0 mm 2 mps 747 mmHg 76%
23:00 +8°C° 0 mm 2 mps 747 mmHg 78%

Tomorrow, 21 April, Wednesday

Time Temperature Precipitation Wind Pressure Humidity
00:00 +7°C° 0 mm 2 mps 747 mmHg 80%
01:00 +8°C° 0 mm 1 mps 747 mmHg 81%
02:00 +6°C° 0 mm 2 mps 746 mmHg 82%
03:00 +6°C° 0 mm 2 mps 746 mmHg 83%
04:00 +5°C° 0 mm 2 mps 746 mmHg 84%
05:00 +6°C° 0 mm 2 mps 746 mmHg 78%
06:00 +7°C° 0 mm 2 mps 746 mmHg 72%
07:00 +8°C° 0 mm 2 mps 746 mmHg 66%
08:00 +10°C° 0 mm 2 mps 746 mmHg 59%
09:00 +13°C° 0 mm 2 mps 746 mmHg 51%
10:00 +13°C° 0 mm 3 mps 746 mmHg 43%
11:00 +14°C° 0 mm 3 mps 746 mmHg 41%
12:00 +15°C° 0 mm 4 mps 746 mmHg 39%
13:00 +15°C° 0 mm 4 mps 745 mmHg 37%
14:00 +15°C° 0 mm 4 mps 745 mmHg 40%
15:00 +14°C° 0 mm 4 mps 745 mmHg 43%
16:00 +14°C° 0 mm 4 mps 745 mmHg 46%
17:00 +10°C° 0.2 mm 5 mps 745 mmHg 59%
18:00 +8°C° 0.2 mm 5 mps 745 mmHg 72%
19:00 +6°C° 0.2 mm 5 mps 746 mmHg 85%
20:00 +5°C° 0 mm 5 mps 746 mmHg 82%
21:00 +5°C° 0 mm 4 mps 746 mmHg 79%
22:00 +4°C° 0 mm 3 mps 746 mmHg 76%
23:00 +4°C° 0 mm 4 mps 746 mmHg 78%

Day after tomorrow, 22 April, Thursday

Time Temperature Precipitation Wind Pressure Humidity
00:00 +3°C° 0 mm 4 mps 746 mmHg 79%
01:00 +1°C° 0 mm 5 mps 746 mmHg 80%
02:00 0°C° 0 mm 5 mps 746 mmHg 81%
03:00 0°C° 0 mm 5 mps 746 mmHg 81%
04:00 -1°C° 0 mm 5 mps 746 mmHg 82%
05:00 0°C° 0 mm 5 mps 746 mmHg 79%
06:00 -1°C° 0 mm 6 mps 746 mmHg 77%
07:00 +1°C° 0 mm 6 mps 746 mmHg 74%
08:00 +1°C° 0.1 mm 6 mps 746 mmHg 77%
09:00 +2°C° 0.1 mm 6 mps 746 mmHg 80%
10:00 +2°C° 0.1 mm 6 mps 746 mmHg 82%
11:00 +2°C° 0.3 mm 6 mps 746 mmHg 80%
12:00 +3°C° 0.3 mm 6 mps 746 mmHg 77%
13:00 +3°C° 0.3 mm 5 mps 746 mmHg 74%
14:00 +5°C° 0.2 mm 5 mps 747 mmHg 67%
15:00 +4°C° 0.2 mm 6 mps 747 mmHg 60%
16:00 +5°C° 0.2 mm 6 mps 747 mmHg 54%
17:00 +5°C° 0.1 mm 5 mps 747 mmHg 57%
18:00 +3°C° 0.1 mm 5 mps 747 mmHg 61%
19:00 +3°C° 0.1 mm 4 mps 747 mmHg 65%
20:00 +3°C° 0 mm 4 mps 747 mmHg 67%
21:00 +3°C° 0 mm 4 mps 748 mmHg 68%
22:00 +1°C° 0 mm 5 mps 748 mmHg 70%
23:00 +1°C° 0.1 mm 5 mps 748 mmHg 75%

23 April, Friday

Time Temperature Precipitation Wind Pressure Humidity
00:00 +1°C° 0.1 mm 5 mps 748 mmHg 80%
01:00 +1°C° 0.1 mm 5 mps 748 mmHg 85%
02:00 +1°C° 0.1 mm 5 mps 748 mmHg 86%
03:00 +1°C° 0.1 mm 5 mps 749 mmHg 86%
04:00 +1°C° 0.1 mm 5 mps 749 mmHg 87%
05:00 +1°C° 0 mm 5 mps 750 mmHg 84%
06:00 +1°C° 0 mm 5 mps 750 mmHg 81%
07:00 +2°C° 0 mm 5 mps 751 mmHg 78%
08:00 +3°C° 0.1 mm 5 mps 751 mmHg 66%
09:00 +5°C° 0.1 mm 6 mps 751 mmHg 54%
10:00 +6°C° 0.1 mm 7 mps 752 mmHg 42%
11:00 +7°C° 0 mm 6 mps 752 mmHg 37%
12:00 +8°C° 0 mm 6 mps 752 mmHg 31%
13:00 +8°C° 0 mm 6 mps 753 mmHg 26%
14:00 +8°C° 0 mm 6 mps 753 mmHg 27%
15:00 +8°C° 0 mm 5 mps 753 mmHg 29%
16:00 +8°C° 0 mm 5 mps 753 mmHg 30%
17:00 +7°C° 0 mm 4 mps 753 mmHg 35%
18:00 +7°C° 0 mm 2 mps 753 mmHg 39%
19:00 +7°C° 0 mm 1 mps 753 mmHg 43%
20:00 +7°C° 0 mm 1 mps 753 mmHg 47%
21:00 +7°C° 0 mm 1 mps 753 mmHg 50%
22:00 +5°C° 0 mm 2 mps 753 mmHg 54%
23:00 +5°C° 0 mm 2 mps 753 mmHg 61%

24 April, Saturday

Time Temperature Precipitation Wind Pressure Humidity
00:00 +4°C° 0 mm 2 mps 752 mmHg 69%
01:00 +4°C° 0 mm 2 mps 752 mmHg 76%
02:00 +4°C° 0 mm 2 mps 752 mmHg 82%
03:00 +3°C° 0 mm 2 mps 752 mmHg 87%
04:00 +2°C° 0 mm 2 mps 752 mmHg 93%
05:00 +2°C° 0 mm 3 mps 752 mmHg 91%
06:00 +3°C° 0 mm 4 mps 752 mmHg 89%
07:00 +3°C° 0 mm 4 mps 752 mmHg 87%
08:00 +4°C° 0 mm 4 mps 752 mmHg 82%
09:00 +4°C° 0 mm 4 mps 752 mmHg 77%
10:00 +5°C° 0 mm 5 mps 752 mmHg 73%
11:00 +6°C° 0.1 mm 5 mps 752 mmHg 69%
12:00 +6°C° 0.1 mm 5 mps 752 mmHg 66%
13:00 +7°C° 0.1 mm 5 mps 753 mmHg 63%
14:00 +7°C° 0.1 mm 5 mps 753 mmHg 59%
15:00 +7°C° 0.1 mm 5 mps 753 mmHg 56%
16:00 +7°C° 0.1 mm 5 mps 753 mmHg 53%
17:00 +6°C° 0 mm 4 mps 753 mmHg 51%
18:00 +4°C° 0 mm 3 mps 754 mmHg 49%
19:00 +3°C° 0 mm 3 mps 754 mmHg 48%
20:00 +2°C° 0 mm 3 mps 754 mmHg 53%
21:00 +2°C° 0 mm 2 mps 754 mmHg 59%
22:00 +1°C° 0 mm 2 mps 755 mmHg 64%
23:00 +1°C° 0 mm 2 mps 755 mmHg 68%

25 April, Sunday

Time Temperature Precipitation Wind Pressure Humidity
00:00 -1°C° 0 mm 2 mps 755 mmHg 71%
01:00 -1°C° 0 mm 2 mps 755 mmHg 74%
02:00 -1°C° 0 mm 2 mps 755 mmHg 75%
03:00 -1°C° 0 mm 2 mps 755 mmHg 77%
04:00 -1°C° 0 mm 2 mps 756 mmHg 78%
05:00 0°C° 0 mm 3 mps 756 mmHg 71%
06:00 +2°C° 0 mm 3 mps 756 mmHg 63%
07:00 +4°C° 0 mm 4 mps 756 mmHg 56%
08:00 +5°C° 0 mm 4 mps 757 mmHg 48%
09:00 +6°C° 0 mm 5 mps 757 mmHg 40%
10:00 +7°C° 0 mm 6 mps 757 mmHg 32%
11:00 +8°C° 0 mm 6 mps 757 mmHg 31%
12:00 +8°C° 0 mm 6 mps 757 mmHg 30%
13:00 +9°C° 0 mm 5 mps 757 mmHg 30%
14:00 +9°C° 0 mm 5 mps 757 mmHg 30%
15:00 +8°C° 0 mm 5 mps 757 mmHg 31%
16:00 +8°C° 0 mm 5 mps 757 mmHg 32%
17:00 +6°C° 0 mm 4 mps 757 mmHg 39%
18:00 +5°C° 0 mm 3 mps 757 mmHg 45%
19:00 +4°C° 0 mm 2 mps 757 mmHg 51%
20:00 +4°C° 0 mm 2 mps 757 mmHg 54%
21:00 +4°C° 0 mm 1 mps 757 mmHg 58%
22:00 +3°C° 0 mm 1 mps 757 mmHg 61%
23:00 +3°C° 0 mm 1 mps 757 mmHg 62%
Show more